Probability
0 0 0 0 0 0 0 0 0 0 0 0 0 0 0 0 0 0 0 0 0 0 0 0 0 0 0 0 0 0 0 0 0 0 0 0 0 0 0 0 0 0 0
0 0 0 0 0 0 0 0 0 0 0 0 0 0 0 0 0 0 0 0 0 0 0 0 0 0 0 0 0 0 0 0 0 0 0 0 0 0 0 0 0 0 0
0 0 0 0 0 0 0 0 0 0 0 0 0 0 0 0 0 0 0 0 0 0 0 0 0 0 0 0 0 0 0 0 0 0 0 0 0 0 0 0 0 0 0
0 0 0 0 0 0 0 0 0 0 0 0 0 0 0 0 0 0 0 0 0 0 0 0 0 0 0 0 0 0 0 0 0 0 0 0 0 0 0 0 0 0 0
0 0 0 0 0 0 0 0 0 0 0 0 0 0 0 0 0 0 0 0 0 0 0 0 0 0 0 0 0 0 0 0 0 0 0 0 0 0 0 0 0 0 0
0 0 0 0 0 0 0 0 0 0 0 0 0 0 0 0 0 0 0 0 0 0 0 0 0 0 0 0 0 0 0 0 0 0 0 0 0 0 0 0 0 0 0
0 0 0 0 0 0 0 0 0 0 0 0 0 0 0 0 0 0 0 0 0 0 0 0 0 0 0 0 0 0 0 0 0 0 0 0 0 0 0 0 0 0 0
0 0 0 0 0 0 0 0 0 0 0 0 0 0 0 0 0 0 0 0 0 0 0 0 0 0 0 0 0 0 0 0 0 0 0 0 0 0 0 0 0 0 0
0 0 0 0 0 0 0 0 0 0 0 0 0 0 0 0 0 0 0 0 0 0 0 0 0 0 0 0 0 0 0 0 0 0 0 0 0 0 0 0 0 0 0
0 0 0 0 0 0 0 0 0 0 0 0 0 0 0 0 0 0 0 0 0 0 0 0 0 0 0 0 0 0 0 0 0 0 0 0 0 0 0 0 0 0 0
0 0 0 0 0 0 0 0 0 0 0 0 0 0 0 0 0 0 0 0 0 0 0 0 0 0 0 0 0 0 0 0 0 0 0 0 0 0 0 0 0 0 0
0 0 0 0 0 0 0 0 0 0 0 0 0 0 0 0 0 0 0 0 0 0 0 0 0 0 0 0 0 0 0 0 0 0 0 0 0 0 0 0 0 0 0
0 0 0 0 0 0 0 0 0 0 0 0 0 0 0 0 0 0 0 0 0 0 0 0 0 0 0 0 0 0 0 0 0 0 0 0 0 0 0 0 0 0 0
0 0 0 0 0 0 0 0 0 0 0 0 0 0 0 0 0 0 0 0 0 0 0 0 0 0 0 0 0 0 0 0 0 0 0 0 0 0 0 0 0 0 0
0 0 0 0 0 0 0 0 0 0 0 0 0 0 0 0 0 0 0 0 0 0 0 0 0 0 0 0 0 0 0 0 0 0 0 0 0 0 0 0 0 0 0
0 0 0 0 0 0 0 0 0 0 0 0 0 0 0 0 0 0 0 0 0 0 0 0 0 0 0 0 0 0 0 0 0 0 0 0 0 0 0 0 0 0 0
0 0 0 0 0 0 0 0 0 0 0 0 0 0 0 0 0 0 0 0 0 0 0 0 0 0 0 0 0 0 0 0 0 0 0 0 0 0 0 0 0 0 0
0 0 0 0 0 0 0 0 0 0 0 0 0 0 0 0 0 0 0 0 0 0 0 0 0 0 0 0 0 0 0 0 0 0 0 0 0 0 0 0 0 0 0
0 0 0 0 0 0 0 0 0 0 0 0 0 0 0 0 0 0 0 0 0 0 0 0 0 0 0 0 0 0 0 0 0 0 0 0 0 0 0 0 0 0 0
0 0 0 0 0 0 0 0 0 0 0 0 0 0 0 0 0 0 0 0 0 0 0 0 0 0 0 0 0 0 0 0 0 0 0 0 0 0 0 0 0 0 0
0 0 0 0 0 0 0 0 0 0 0 0 0 0 0 0 0 0 0 0 0 0 0 0 0 0 0 0 0 0 0 0 0 0 0 0 0 0 0 0 0 0 0
0 0 0 0 0 0 0 0 0 0 0 0 0 0 0 0 0 0 0 0 0 0 0 0 0 0 0 0 0 0 0 0 0 0 0 0 0 0 0 0 0 0 0
0 0 0 0 0 0 0 0 0 0 0 0 0 0 0 0 0 0 0 0 0 0 0 0 0 0 0 0 0 0 0 0 0 0 0 0 0 0 0 0 0 0 0
0 0 0 0 0 0 0 0 0 0 0 0 0 0 0 0 0 0 0 0 0 0 0 0 0 0 0 0 0 0 0 0 0 0 0 0 0 0 0 0 0 0 0
0 0 0 0 0 0 0 0 0 0 0 0 0 0 0 0 0 0 0 0 0 0 0 0 0 0 0 0 0 0 0 0 0 0 0 0 0 0 0 0 0 0 0
0 0 0 0 0 0 0 0 0 0 0 0 0 0 0 0 0 0 0 0 0 0 0 0 0 0 0 0 0 0 0 0 0 0 0 0 0 0 0 0 0 0 0
Wind_Speed
4 5 10 12 14 14 14 14 14 14 15 16 17 17 17 17 17 17 17 18 18 18 19 20 20 20 20 20 20 20 21 20 20 20 20 20 20 20 19 18 16 12 19
7 6 10 12 14 14 14 14 14 14 15 16 17 17 17 17 17 17 17 17 18 18 19 19 19 19 19 19 18 19 20 20 19 19 19 17 19 19 19 18 17 12 18
9 7 8 11 14 14 14 14 14 14 15 16 16 17 17 17 17 17 17 17 17 18 18 18 18 18 18 18 18 18 19 19 18 18 16 8 11 18 18 17 17 18 17
10 8 9 11 13 14 14 14 14 14 15 15 16 17 17 17 16 17 17 17 17 18 18 18 18 18 18 18 18 18 19 18 17 15 9 7 8 16 17 17 16 16 16
8 7 9 11 13 15 14 14 14 14 14 15 16 16 16 16 16 16 16 16 17 17 17 17 17 17 17 17 17 18 18 18 16 12 7 7 6 14 16 15 15 15 14
8 7 8 12 13 15 14 14 14 14 14 15 15 16 16 16 16 16 16 16 16 16 16 16 15 16 16 17 17 17 17 16 12 7 6 6 5 12 14 13 13 13 13
8 7 8 11 12 13 14 15 14 14 14 14 15 15 15 15 15 15 15 15 15 15 15 15 14 14 15 16 16 15 15 14 8 6 6 5 7 12 12 12 12 11 11
10 7 7 10 11 11 12 13 14 14 14 14 14 14 14 15 14 14 14 14 14 14 14 13 13 13 14 14 14 13 11 10 9 7 5 5 9 11 11 11 10 10 10
8 8 6 6 8 11 12 12 12 12 12 13 13 13 13 13 13 13 12 13 13 13 13 12 11 11 12 12 13 12 10 10 5 4 4 3 8 10 9 9 9 8 8
7 7 7 6 6 6 8 11 12 11 11 12 12 11 11 11 11 11 9 11 12 12 11 10 10 10 10 10 11 10 8 7 4 4 2 3 7 8 8 7 7 6 6
8 6 7 7 6 6 6 9 9 10 11 10 9 11 9 5 5 6 8 9 10 10 9 9 8 7 7 7 8 8 6 2 3 2 1 3 5 5 5 5 4 4 4
11 9 7 7 8 7 6 6 4 5 5 5 5 5 4 4 4 5 8 8 8 7 7 7 6 5 4 3 4 5 2 2 1 1 0 1 2 2 2 2 2 2 1
11 10 8 8 8 7 6 5 3 3 3 4 5 4 4 4 3 3 2 3 3 4 2 3 3 2 1 1 1 2 2 1 0 1 2 3 2 2 2 2 2 3 3
11 10 9 9 8 7 7 5 4 4 3 3 4 5 5 3 3 3 2 2 2 1 1 1 1 0 1 1 1 1 1 1 0 1 3 6 6 6 6 6 6 6 6
11 11 11 10 10 8 7 5 5 5 4 4 4 5 6 4 4 3 3 2 3 2 2 2 1 1 0 0 1 1 1 2 2 2 3 7 8 9 10 10 10 10 10
12 12 11 11 11 9 7 6 6 5 5 5 4 6 6 5 4 4 4 3 3 3 3 2 2 1 1 1 2 2 3 3 3 4 3 5 9 11 13 13 13 13 14
13 13 12 12 11 10 9 8 6 6 5 5 5 6 6 5 5 5 4 4 4 3 3 2 2 1 1 2 3 4 3 4 4 5 5 4 5 9 13 15 16 16 16
12 13 12 10 11 10 8 7 6 6 6 5 5 5 6 6 6 5 4 4 4 3 3 2 2 1 2 2 3 3 3 4 6 6 6 5 5 5 8 14 16 17 18
13 14 13 12 12 11 9 7 6 5 6 5 5 5 6 6 6 5 4 4 4 3 2 2 2 2 2 3 3 4 4 5 6 6 7 7 6 6 5 9 12 14 17
13 13 14 13 12 10 7 5 4 4 5 4 5 6 6 6 6 5 4 4 4 3 3 2 3 2 2 2 3 5 5 6 5 6 7 6 5 6 5 6 6 8 14
12 13 15 14 12 10 8 7 7 6 4 4 5 6 7 7 7 6 4 4 4 4 4 4 3 3 2 1 1 4 4 5 5 5 4 4 5 5 5 5 5 5 6
14 14 14 15 14 13 10 8 5 4 4 4 4 5 6 7 7 6 6 5 5 4 4 4 3 2 2 2 2 2 4 5 3 3 3 3 5 4 5 6 6 6 6
12 14 13 14 14 13 10 6 4 4 3 4 4 4 6 7 6 6 6 5 5 4 4 4 4 4 3 2 3 2 2 3 4 3 3 3 3 3 4 5 6 7 7
10 9 10 12 12 12 11 10 9 7 7 6 4 4 4 5 6 6 6 5 4 4 4 4 4 4 3 3 2 3 4 2 3 5 4 3 3 4 5 5 5 6 6
5 6 7 8 10 11 12 12 11 7 5 4 4 5 4 3 3 4 4 4 4 3 3 3 3 3 3 2 2 2 3 3 4 5 7 5 4 4 4 5 5 5 6
3 3 5 7 8 10 12 12 12 10 8 6 5 5 3 2 2 2 3 3 2 2 2 1 1 1 1 1 1 1 2 2 2 3 6 8 7 5 5 5 5 5 5
Wind_Direction
147 157 137 129 119 112 107 104 100 98 97 95 93 89 87 84 82 81 79 78 78 78 78 78 78 77 74 74 75 76 74 71 70 69 70 71 71 70 69 66 63 60 66
145 145 133 128 121 115 110 107 104 102 100 98 95 92 90 87 85 83 82 80 80 80 80 80 79 77 73 73 76 79 78 75 72 69 67 67 70 70 68 67 68 67 67
132 130 124 123 121 117 114 111 108 106 102 100 98 95 92 90 88 86 85 83 83 82 82 83 81 76 71 70 75 81 82 78 73 69 63 52 63 69 68 65 65 66 66
130 127 123 122 124 121 116 113 110 107 105 103 100 97 94 92 90 87 86 85 84 83 83 83 80 75 69 70 76 84 83 79 73 68 56 48 55 68 67 65 64 64 64
123 123 126 123 127 124 119 115 112 109 105 104 101 98 96 94 92 89 87 85 85 84 83 82 79 73 69 70 77 85 85 81 74 63 50 46 51 69 68 67 66 63 62
122 124 129 125 128 126 122 119 117 113 108 105 103 101 99 97 94 91 89 87 86 84 83 81 77 72 69 70 77 84 87 85 74 57 47 44 51 68 69 68 67 65 63
127 124 126 123 126 127 125 123 120 116 111 109 107 104 103 101 98 95 92 90 89 87 85 81 77 72 70 71 75 81 88 88 77 61 50 45 60 68 68 67 65 65 64
131 125 121 120 122 124 124 124 121 118 115 113 111 108 106 104 101 98 96 94 93 90 87 83 78 73 70 68 69 74 84 90 83 72 55 45 68 69 68 67 65 65 65
129 125 120 119 118 119 120 120 119 116 115 114 112 107 102 101 101 99 97 98 95 93 90 85 80 75 71 66 65 67 81 92 87 75 63 45 66 68 68 66 64 64 64
129 132 130 123 118 117 118 120 119 116 114 114 113 108 103 101 100 98 95 99 100 98 94 90 82 73 64 58 56 59 75 87 89 83 65 60 65 67 67 65 61 61 60
145 146 143 136 130 126 126 128 123 120 121 120 120 119 108 100 98 97 104 103 104 102 99 93 83 67 50 40 40 50 64 73 98 89 73 80 73 66 66 63 57 54 51
163 165 160 151 146 142 138 133 126 127 131 129 132 127 117 119 116 113 112 112 110 106 100 93 80 58 45 26 24 41 51 75 93 118 220 128 85 60 58 54 37 27 16
167 167 169 163 158 152 144 150 143 139 144 146 150 145 133 128 122 114 112 109 109 105 85 78 66 52 54 45 27 31 51 71 114 241 257 242 243 266 276 268 270 275 275
168 171 170 168 164 160 156 159 157 157 163 165 167 157 146 144 148 151 151 156 153 144 147 128 111 97 93 75 56 26 25 37 248 246 256 251 252 261 270 270 264 262 263
172 173 172 169 169 166 162 166 168 171 176 177 171 168 163 159 166 171 175 179 183 179 180 183 190 196 210 299 309 308 306 299 279 263 265 257 256 261 269 274 274 270 266
177 176 172 172 172 169 170 172 174 176 174 174 179 179 174 168 170 173 179 185 191 190 189 188 195 205 240 270 280 279 276 278 272 271 262 263 261 262 266 272 276 276 275
182 178 176 175 172 173 174 175 174 178 173 177 184 184 180 176 176 175 178 188 196 189 185 184 198 205 248 263 271 274 274 272 269 267 263 255 258 260 262 269 274 277 278
183 182 181 178 176 177 176 176 174 178 177 181 182 184 186 184 180 177 183 196 193 182 182 188 193 221 254 262 271 274 271 273 270 266 265 261 258 261 265 270 273 277 280
188 185 184 182 182 181 177 175 173 175 180 183 182 186 191 188 182 180 191 196 183 180 191 196 200 205 248 264 271 277 273 268 269 270 270 270 265 263 263 273 273 275 279
190 187 186 185 185 180 174 170 170 176 183 183 185 190 190 192 188 184 191 193 180 184 199 201 214 218 241 260 280 281 272 264 263 263 269 275 273 269 268 271 275 277 278
187 187 187 186 185 179 182 186 189 194 189 190 192 193 193 194 192 189 189 189 186 199 209 201 200 227 247 218 287 301 291 269 263 264 264 271 277 277 278 275 274 273 279
189 189 189 189 186 185 189 189 185 176 185 193 191 196 197 196 196 193 194 196 195 201 209 204 193 199 232 186 203 301 314 319 314 274 268 266 274 288 284 279 275 271 270
192 191 190 190 188 188 181 172 162 170 177 191 198 200 203 201 199 195 198 197 195 194 209 211 199 202 229 222 201 214 269 288 314 300 282 272 275 276 276 277 274 272 270
194 190 189 187 187 185 178 180 180 189 196 197 188 195 203 201 199 196 193 193 192 193 204 209 201 204 212 235 219 226 238 265 285 303 301 288 284 280 277 276 277 276 273
179 181 185 182 185 183 182 185 186 191 190 174 174 182 193 192 186 182 177 177 183 189 199 199 197 206 209 226 221 222 237 244 234 266 291 299 303 280 278 277 278 278 280
145 161 172 175 184 183 184 186 188 187 179 171 176 174 169 136 105 114 130 135 140 145 161 173 173 178 207 233 248 237 242 260 266 266 286 299 297 290 280 270 270 277 287